Location: Bernay
(48.6766°N, 2.9386°E)
Time: 00:39:39
(UTC+00:00)

SJ 16-02 - Pass Details

Date: 27 April 2026
Orbit: 582 x 592 km, 75.0° (Epoch: 19 May)

Event Time Altitude Azimuth Distance (km) Brightness Sun altitude
Rises 22:10:58 0° 326° (NW) 2,819 6.1 -23.8°
Reaches altitude 10° 22:13:37 10° 310° (NW) 1,912 4.7 -24.0°
Maximum altitude 22:16:45 20° 262° (W) 1,354 3.2 -24.2°
Enters shadow 22:17:26 20° 249° (WSW) 1,383 3.1 -24.3°
